sat.trackr.live / text

‹ back to catalog

BB 1

NORAD 56171 · 2023-050K

PAYLOAD ACTIVE UNKNOWN

§ Identity

Operator
Country
US
Launch date
2023-04-02
Launch site
AFWTR
Launch vehicle
Mass (kg)
RCS (m²)

External: N2YO · Heavens-Above · Gunter

§ Orbital elements

Epoch: 2026-09-21T16:24:36.133056Z

Period
100.40 min
Inclination
81.0054°
Eccentricity
0.0016255
Mean motion
14.34283152 rev/d
Perigee alt
765.8 km
Apogee alt
789.1 km
Semi-major
7,155.6 km
B*
6.4336e-5
RAAN
344.3733°
Arg perigee
40.7063°
Mean anomaly
319.5332°
Rev number
17,512

§ Raw data

BB 11 56171U 23050K   26264.68375154  .00000193  00000+0  64336-4 0  99972 56171  81.0054 344.3733 0016255  40.7063 319.5332 14.34283152175121

JSON: /api/v1/satellites/56171 · /tle

For live sub-satellite position, see the globe view (requires WebGL).

§ Visibility from observer

Set your observer location to see the next 7 days of passes ≥ 10°. The values pass through the URL so the page stays shareable.

No JS? Fill the form by hand. The geolocation button needs JavaScript.